TimeCDT,TemperatureF,Dew PointF,Humidity,Sea Level PressureIn,VisibilityMPH,Wind Direction,Wind SpeedMPH,Gust SpeedMPH,PrecipitationIn,Events,Conditions,WindDirDegrees,DateUTC
12:58 AM,72.5,63.1,72,29.83,10.0,SSW,9.2,26.5,N/A,,Clear,200,2013-04-11 05:58:00
1:58 AM,71.2,63.3,76,29.80,10.0,South,15.0,23.0,N/A,,Clear,170,2013-04-11 06:58:00
2:58 AM,70.2,63.1,78,29.81,10.0,SSW,8.1,-,N/A,,Clear,200,2013-04-11 07:58:00
3:33 AM,69.8,62.6,78,29.80,10.0,SSW,8.1,-,N/A,,Mostly Cloudy,200,2013-04-11 08:33:00
3:58 AM,69.4,63.1,80,29.81,10.0,South,6.9,-,N/A,,Mostly Cloudy,190,2013-04-11 08:58:00
4:03 AM,69.8,62.6,78,29.79,10.0,South,5.8,-,N/A,,Mostly Cloudy,180,2013-04-11 09:03:00
4:08 AM,69.8,62.6,78,29.79,10.0,South,8.1,-,N/A,,Mostly Cloudy,180,2013-04-11 09:08:00
4:53 AM,68.0,62.6,83,29.77,10.0,South,8.1,-,N/A,,Mostly Cloudy,170,2013-04-11 09:53:00
4:58 AM,68.5,63.1,83,29.78,10.0,South,9.2,-,N/A,,Mostly Cloudy,170,2013-04-11 09:58:00
5:03 AM,68.0,62.6,83,29.77,10.0,South,10.4,-,N/A,,Mostly Cloudy,170,2013-04-11 10:03:00
5:08 AM,68.0,62.6,83,29.77,10.0,South,8.1,-,N/A,,Mostly Cloudy,180,2013-04-11 10:08:00
5:13 AM,68.0,62.6,83,29.77,10.0,South,11.5,-,N/A,,Overcast,170,2013-04-11 10:13:00
5:58 AM,69.1,63.5,82,29.76,10.0,South,15.0,21.9,N/A,,Overcast,180,2013-04-11 10:58:00
6:38 AM,69.8,64.4,83,29.75,10.0,South,12.7,-,N/A,,Mostly Cloudy,180,2013-04-11 11:38:00
6:43 AM,69.8,64.4,83,29.75,10.0,South,15.0,18.4,N/A,,Mostly Cloudy,180,2013-04-11 11:43:00
6:48 AM,68.0,64.4,88,29.75,10.0,South,10.4,19.6,N/A,,Mostly Cloudy,170,2013-04-11 11:48:00
6:58 AM,68.7,63.9,84,29.75,10.0,South,12.7,18.4,N/A,,Scattered Clouds,170,2013-04-11 11:58:00
7:18 AM,69.8,64.4,83,29.76,10.0,South,11.5,-,N/A,,Mostly Cloudy,170,2013-04-11 12:18:00
7:23 AM,69.8,64.4,83,29.76,10.0,South,12.7,-,N/A,,Mostly Cloudy,190,2013-04-11 12:23:00
7:58 AM,69.6,64.8,84,29.75,10.0,South,12.7,21.9,N/A,,Overcast,170,2013-04-11 12:58:00
8:43 AM,71.6,64.4,78,29.74,10.0,South,13.8,23.0,N/A,,Mostly Cloudy,170,2013-04-11 13:43:00
8:58 AM,72.1,64.9,78,29.73,10.0,South,15.0,21.9,N/A,,Mostly Cloudy,170,2013-04-11 13:58:00
9:08 AM,73.4,64.4,73,29.73,10.0,South,19.6,25.3,N/A,,Scattered Clouds,170,2013-04-11 14:08:00
9:48 AM,73.4,64.4,73,29.73,10.0,South,21.9,29.9,N/A,,Mostly Cloudy,170,2013-04-11 14:48:00
9:58 AM,72.7,65.1,77,29.73,10.0,South,16.1,31.1,N/A,,Mostly Cloudy,180,2013-04-11 14:58:00
10:08 AM,73.4,66.2,78,29.73,10.0,South,18.4,24.2,N/A,,Scattered Clouds,180,2013-04-11 15:08:00
10:23 AM,73.4,66.2,78,29.73,10.0,South,17.3,23.0,N/A,,Mostly Cloudy,170,2013-04-11 15:23:00
10:28 AM,73.4,66.2,78,29.72,10.0,South,13.8,-,N/A,,Mostly Cloudy,170,2013-04-11 15:28:00
10:58 AM,74.1,66.0,76,29.72,10.0,South,15.0,25.3,N/A,,Mostly Cloudy,170,2013-04-11 15:58:00
11:28 AM,75.2,66.2,73,29.69,10.0,South,15.0,25.3,N/A,,Mostly Cloudy,170,2013-04-11 16:28:00
11:53 AM,73.4,66.2,78,29.68,10.0,South,16.1,20.7,N/A,,Mostly Cloudy,170,2013-04-11 16:53:00
11:58 AM,74.1,66.0,76,29.69,10.0,South,13.8,20.7,N/A,,Overcast,170,2013-04-11 16:58:00
12:06 PM,73.4,66.2,78,29.67,10.0,South,16.1,24.2,N/A,Rain-Thunderstorm,Light Rain,170,2013-04-11 17:06:00
12:15 PM,73.4,68.0,83,29.66,6.0,South,12.7,23.0,N/A,Thunderstorm,Haze,180,2013-04-11 17:15:00
12:24 PM,71.6,68.0,88,29.67,6.0,South,10.4,18.4,N/A,Thunderstorm,Overcast,180,2013-04-11 17:24:00
12:26 PM,71.6,68.0,88,29.67,6.0,South,10.4,18.4,N/A,Rain-Thunderstorm,Light Thunderstorms and Rain,190,2013-04-11 17:26:00
12:27 PM,71.6,68.0,88,29.67,6.0,South,11.5,18.4,N/A,Thunderstorm,Overcast,190,2013-04-11 17:27:00
12:28 PM,71.6,68.0,88,29.67,5.0,South,10.4,18.4,N/A,Rain-Thunderstorm,Light Thunderstorms and Rain,180,2013-04-11 17:28:00
12:30 PM,71.6,68.0,88,29.67,3.0,South,10.4,18.4,N/A,Rain-Thunderstorm,Light Thunderstorms and Rain,190,2013-04-11 17:30:00
12:35 PM,71.6,68.0,88,29.66,1.2,SSW,6.9,-,N/A,Rain-Thunderstorm,Heavy Thunderstorms and Rain,200,2013-04-11 17:35:00
12:40 PM,69.8,69.8,100,29.66,1.5,SW,4.6,-,N/A,Rain-Thunderstorm,Light Thunderstorms and Rain,220,2013-04-11 17:40:00
12:45 PM,69.8,69.8,100,29.68,4.0,NW,17.3,26.5,N/A,Rain-Thunderstorm,Light Thunderstorms and Rain,310,2013-04-11 17:45:00
12:50 PM,68.0,64.4,88,29.68,1.8,NW,15.0,26.5,N/A,Rain-Thunderstorm,Heavy Thunderstorms and Rain,310,2013-04-11 17:50:00
12:52 PM,66.2,62.6,88,29.67,1.0,NW,25.3,35.7,N/A,Rain,Heavy Rain,320,2013-04-11 17:52:00
12:53 PM,66.2,62.6,88,29.67,1.0,NW,23.0,35.7,N/A,Rain,Heavy Rain,320,2013-04-11 17:53:00
12:58 PM,63.9,61.9,93,29.70,0.8,NW,11.5,35.7,0.32,Rain-Thunderstorm,Heavy Rain,320,2013-04-11 17:58:00
1:03 PM,62.6,60.8,94,29.69,0.8,NNW,10.4,20.7,N/A,Rain-Thunderstorm,Heavy Rain,340,2013-04-11 18:03:00
1:08 PM,62.6,60.8,94,29.69,1.0,NW,12.7,20.7,N/A,Rain-Thunderstorm,Heavy Rain,310,2013-04-11 18:08:00
1:18 PM,60.8,60.8,100,29.69,1.2,North,12.7,24.2,N/A,Rain-Thunderstorm,Heavy Rain,350,2013-04-11 18:18:00
1:23 PM,60.8,60.8,100,29.69,1.8,North,9.2,20.7,N/A,Rain-Thunderstorm,Heavy Rain,350,2013-04-11 18:23:00
1:28 PM,60.8,60.8,100,29.70,2.0,NNW,8.1,17.3,N/A,Rain,Heavy Rain,340,2013-04-11 18:28:00
1:33 PM,60.8,60.8,100,29.69,4.0,North,6.9,-,N/A,Rain,Light Rain,350,2013-04-11 18:33:00
1:38 PM,60.8,60.8,100,29.68,8.0,North,15.0,17.3,N/A,Rain,Light Rain,350,2013-04-11 18:38:00
1:43 PM,60.8,60.8,100,29.69,10.0,NNW,5.8,17.3,N/A,Rain,Light Rain,340,2013-04-11 18:43:00
1:58 PM,60.8,59.0,94,29.72,7.0,NNW,10.4,-,0.42,Rain,Rain,330,2013-04-11 18:58:00
2:08 PM,60.8,59.0,94,29.71,4.0,NNW,16.1,-,N/A,Rain,Heavy Rain,330,2013-04-11 19:08:00
2:13 PM,60.8,59.0,94,29.74,4.0,NNW,10.4,-,N/A,Rain,Light Rain,340,2013-04-11 19:13:00
2:18 PM,60.8,59.0,94,29.73,5.0,NNW,10.4,-,N/A,Rain,Light Rain,340,2013-04-11 19:18:00
2:23 PM,60.8,59.0,94,29.73,2.5,North,11.5,17.3,N/A,Rain,Heavy Rain,350,2013-04-11 19:23:00
2:28 PM,60.8,59.0,94,29.73,2.5,NNW,11.5,19.6,N/A,Rain,Heavy Rain,340,2013-04-11 19:28:00
2:38 PM,60.8,59.0,94,29.71,3.0,North,9.2,-,N/A,Rain,Heavy Rain,360,2013-04-11 19:38:00
2:43 PM,60.8,59.0,94,29.71,4.0,North,6.9,-,N/A,Rain,Heavy Rain,350,2013-04-11 19:43:00
2:48 PM,60.8,59.0,94,29.72,4.0,North,3.5,-,N/A,Rain,Heavy Rain,350,2013-04-11 19:48:00
2:53 PM,59.0,59.0,100,29.71,3.0,North,5.8,-,N/A,Rain,Rain,350,2013-04-11 19:53:00
2:58 PM,59.9,59.0,97,29.71,4.0,North,9.2,-,0.26,Rain,Heavy Rain,360,2013-04-11 19:58:00
3:03 PM,60.8,59.0,94,29.69,4.0,North,2.3,-,N/A,Rain,Heavy Rain,360,2013-04-11 20:03:00
3:08 PM,60.8,59.0,94,29.69,4.0,NNE,4.6,-,N/A,Rain,Heavy Rain,20,2013-04-11 20:08:00
3:15 PM,59.0,59.0,100,29.68,4.0,NE,5.8,-,N/A,Rain,Heavy Rain,40,2013-04-11 20:15:00
3:20 PM,59.0,59.0,100,29.67,4.0,NNE,6.9,-,N/A,Rain,Heavy Rain,20,2013-04-11 20:20:00
3:25 PM,59.0,59.0,100,29.68,5.0,North,2.3,-,N/A,Rain,Rain,350,2013-04-11 20:25:00
3:35 PM,59.0,59.0,100,29.68,6.0,NNW,8.1,-,N/A,Rain,Rain,330,2013-04-11 20:35:00
3:40 PM,59.0,59.0,100,29.69,5.0,NNW,5.8,-,N/A,Rain,Rain,330,2013-04-11 20:40:00
3:41 PM,59.0,59.0,100,29.69,5.0,NW,5.8,-,N/A,Rain-Thunderstorm,Thunderstorms and Rain,320,2013-04-11 20:41:00
3:46 PM,59.0,59.0,100,29.69,4.0,NW,3.5,-,N/A,Rain-Thunderstorm,Thunderstorms and Rain,320,2013-04-11 20:46:00
3:51 PM,59.0,59.0,100,29.69,5.0,NNW,8.1,-,N/A,Rain-Thunderstorm,Thunderstorms and Rain,340,2013-04-11 20:51:00
3:56 PM,59.0,57.2,94,29.69,7.0,NNW,8.1,-,N/A,Rain-Thunderstorm,Light Rain,340,2013-04-11 20:56:00
3:58 PM,59.0,57.2,94,29.70,8.0,North,6.9,-,0.18,Rain-Thunderstorm,Light Rain,350,2013-04-11 20:58:00
4:33 PM,59.0,59.0,100,29.61,9.0,East,4.6,-,N/A,Rain,Light Rain,100,2013-04-11 21:33:00
4:47 PM,59.0,59.0,100,29.62,10.0,Calm,Calm,-,N/A,,Overcast,10,2013-04-11 21:47:00
4:54 PM,59.0,59.0,100,29.62,10.0,Calm,Calm,-,N/A,,Overcast,10,2013-04-11 21:54:00
4:58 PM,59.5,59.2,99,29.63,10.0,NNE,1.2,-,0.03,,Overcast,20,2013-04-11 21:58:00
5:27 PM,60.8,59.0,94,29.62,10.0,Calm,Calm,-,N/A,Rain,Light Rain,0,2013-04-11 22:27:00
5:39 PM,60.8,60.8,100,29.66,10.0,West,6.9,-,N/A,,Mostly Cloudy,280,2013-04-11 22:39:00
5:54 PM,60.8,60.8,100,29.65,10.0,WNW,10.4,-,N/A,,Overcast,300,2013-04-11 22:54:00
5:58 PM,60.3,60.3,100,29.67,10.0,WNW,10.4,-,0.00,,Overcast,290,2013-04-11 22:58:00
6:08 PM,60.8,60.8,100,29.67,10.0,WNW,9.2,-,N/A,,Overcast,290,2013-04-11 23:08:00
6:13 PM,60.8,60.8,100,29.67,10.0,WNW,11.5,-,N/A,,Overcast,290,2013-04-11 23:13:00
6:28 PM,59.0,59.0,100,29.68,10.0,WNW,9.2,18.4,N/A,,Overcast,300,2013-04-11 23:28:00
6:38 PM,59.0,57.2,94,29.71,10.0,WNW,16.1,21.9,N/A,,Light Drizzle,290,2013-04-11 23:38:00
6:51 PM,57.2,57.2,100,29.71,6.0,WNW,11.5,20.7,N/A,,Overcast,290,2013-04-11 23:51:00
6:58 PM,57.7,57.2,98,29.71,10.0,WNW,8.1,19.6,0.00,,Overcast,290,2013-04-11 23:58:00
7:13 PM,57.2,57.2,100,29.71,10.0,WNW,15.0,21.9,N/A,,Overcast,300,2013-04-12 00:13:00
7:38 PM,55.4,55.4,100,29.71,10.0,WNW,8.1,-,N/A,,Overcast,300,2013-04-12 00:38:00
7:58 PM,55.9,55.6,99,29.72,10.0,NW,9.2,-,N/A,,Overcast,320,2013-04-12 00:58:00
8:13 PM,55.4,53.6,94,29.71,10.0,NW,11.5,19.6,N/A,,Overcast,320,2013-04-12 01:13:00
8:18 PM,55.4,53.6,94,29.72,10.0,NW,8.1,-,N/A,,Overcast,310,2013-04-12 01:18:00
8:28 PM,55.4,53.6,94,29.71,10.0,NW,13.8,-,N/A,,Overcast,310,2013-04-12 01:28:00
8:53 PM,55.4,53.6,94,29.72,10.0,NW,15.0,-,N/A,,Overcast,310,2013-04-12 01:53:00
8:58 PM,54.5,52.9,94,29.73,10.0,WNW,15.0,-,N/A,,Overcast,300,2013-04-12 01:58:00
9:18 PM,53.6,51.8,94,29.74,10.0,WNW,10.4,21.9,N/A,,Overcast,290,2013-04-12 02:18:00
9:38 PM,53.6,51.8,94,29.74,10.0,WNW,13.8,-,N/A,,Overcast,300,2013-04-12 02:38:00
9:58 PM,53.2,51.1,92,29.79,10.0,WNW,13.8,21.9,N/A,,Overcast,290,2013-04-12 02:58:00
10:53 PM,51.8,50.0,94,29.80,10.0,NW,12.7,18.4,N/A,,Overcast,310,2013-04-12 03:53:00
10:58 PM,51.6,49.1,91,29.81,10.0,NW,11.5,18.4,N/A,,Overcast,320,2013-04-12 03:58:00
11:58 PM,50.9,47.8,89,29.82,10.0,NW,10.4,18.4,N/A,,Overcast,320,2013-04-12 04:58:00